Date String (YYYY-MM-DD hh:mm:ss) UTC,Instrument flags,Ambient pressure (hPa),Sample flow (lpm),Bypass flow (lpm),Sample temperature (°C),Ambient temperature (°C),ASC tube jacket temperature (°C),LED temperature (°C),Box temperature (°C),Sample RH (%),Span deviation,Mass concentration (μg/m³),Mass concentration (μg/m³),Mass concentration (μg/m³)
DateTimeUTC,F1_M11,P_M11,Q1_M11,Q2_M11,T1_M11,T2_M11,T3_M11,T4_M11,T5_M11,U1_M11,ZSPAN_M11,X0_M11,X2_M11,X1_M11
2021-12-11 13:00:00,,0821.9,5.00,0.00,22.0,22.4,00.0,31.1,23.7,04.7,0000.0,0002.70,0001.21,0000.94
2021-12-11 13:01:00,,0822.0,5.01,0.00,22.1,23.1,00.0,31.1,24.1,04.6,0000.0,0002.77,0001.23,0000.94
2021-12-11 13:02:00,,0821.8,5.01,0.00,22.2,23.0,00.0,31.1,24.1,04.6,0000.0,0002.18,0001.22,0000.93
2021-12-11 13:03:00,,0821.9,5.00,0.00,22.2,22.6,00.0,31.1,23.9,04.6,0000.0,0001.94,0001.21,0000.92
2021-12-11 13:04:00,,0821.8,4.99,0.00,22.1,22.1,00.0,31.1,23.7,04.6,0000.0,0001.99,0001.23,0000.93
2021-12-11 13:05:00,,0822.1,5.02,0.00,22.0,21.8,00.0,31.1,23.5,04.6,0000.0,0001.95,0001.21,0000.92
2021-12-11 13:06:00,,0821.9,5.00,0.00,21.9,21.5,00.0,31.1,23.4,04.7,0000.0,0001.84,0001.16,0000.91
2021-12-11 13:07:00,,0822.0,5.00,0.00,21.9,21.3,00.0,31.1,23.3,04.7,0000.0,0001.78,0001.14,0000.90
2021-12-11 13:08:00,,0822.0,5.00,0.00,21.8,21.1,00.0,31.0,23.2,04.7,0000.0,0001.80,0001.12,0000.89
2021-12-11 13:09:00,,0821.9,5.00,0.00,21.7,21.0,00.0,31.0,23.1,04.6,0000.0,0001.88,0001.11,0000.87
2021-12-11 13:10:00,,0822.0,5.01,0.00,21.8,21.4,00.0,31.0,23.3,04.6,0000.0,0002.00,0001.10,0000.86
2021-12-11 13:11:00,,0822.0,5.00,0.00,21.9,22.2,00.0,31.0,23.7,04.5,0000.0,0001.96,0001.09,0000.85
2021-12-11 13:12:00,,0822.1,4.99,0.00,22.1,23.0,00.0,31.1,24.0,04.3,0000.0,0001.90,0001.06,0000.85
2021-12-11 13:13:00,,0822.0,5.01,0.00,22.2,23.1,00.0,31.1,24.1,04.3,0000.0,0001.94,0001.08,0000.85
2021-12-11 13:14:00,,0822.1,5.00,0.00,22.2,22.5,00.0,31.1,23.9,04.3,0000.0,0002.02,0001.10,0000.83
2021-12-11 13:15:00,,0822.2,5.00,0.00,22.1,22.0,00.0,31.1,23.6,04.3,0000.0,0002.00,0001.08,0000.83
2021-12-11 13:16:00,,0822.2,5.00,0.00,21.9,21.6,00.0,31.1,23.4,04.3,0000.0,0002.06,0001.08,0000.82
2021-12-11 13:17:00,,0822.3,4.99,0.00,21.8,21.3,00.0,31.0,23.2,04.3,0000.0,0002.11,0001.09,0000.82
2021-12-11 13:18:00,,0822.4,5.01,0.00,21.7,21.0,00.0,31.0,23.1,04.4,0000.0,0002.09,0001.08,0000.82
2021-12-11 13:19:00,,0822.5,4.99,0.00,21.6,20.8,00.0,31.0,23.0,04.3,0000.0,0002.01,0001.06,0000.81
2021-12-11 13:20:00,,0822.5,5.01,0.00,21.6,21.1,00.0,30.9,23.1,04.3,0000.0,0002.02,0001.06,0000.79
2021-12-11 13:21:00,,0822.5,5.00,0.00,21.8,22.0,00.0,31.0,23.4,04.2,0000.0,0001.88,0001.07,0000.78
2021-12-11 13:22:00,,0822.6,5.00,0.00,21.9,22.8,00.0,31.0,23.8,04.2,0000.0,0001.84,0001.05,0000.77
2021-12-11 13:23:00,,0822.6,4.99,0.00,22.1,23.1,00.0,31.0,24.0,04.1,0000.0,0001.84,0001.04,0000.76
2021-12-11 13:24:00,,0822.6,5.00,0.00,22.1,22.7,00.0,31.0,23.9,04.2,0000.0,0001.88,0001.02,0000.74
2021-12-11 13:25:00,,0822.6,4.99,0.00,22.0,22.3,00.0,31.0,23.6,04.2,0000.0,0001.81,0000.99,0000.74
2021-12-11 13:26:00,,0822.5,5.00,0.00,21.9,21.9,00.0,31.0,23.4,04.3,0000.0,0001.70,0000.95,0000.74
2021-12-11 13:27:00,,0822.5,4.99,0.00,21.9,21.6,00.0,31.0,23.3,04.3,0000.0,0002.00,0000.95,0000.72
2021-12-11 13:28:00,,0822.6,5.02,0.00,21.8,21.4,00.0,31.0,23.2,04.3,0000.0,0002.05,0000.96,0000.71
2021-12-11 13:29:00,,0822.6,4.99,0.00,21.7,21.2,00.0,30.9,23.1,04.3,0000.0,0002.19,0000.95,0000.71
2021-12-11 13:30:00,,0822.6,5.00,0.00,21.7,21.0,00.0,30.9,23.0,04.3,0000.0,0002.31,0000.96,0000.71
2021-12-11 13:31:00,,0822.7,5.02,0.00,21.6,20.9,00.0,30.9,23.0,04.2,0000.0,0002.28,0000.96,0000.71
2021-12-11 13:32:00,,0822.6,4.99,0.00,21.7,21.5,00.0,30.9,23.3,04.2,0000.0,0002.26,0000.95,0000.72
2021-12-11 13:33:00,,0822.6,5.00,0.00,21.8,22.3,00.0,30.9,23.6,04.1,0000.0,0002.25,0000.94,0000.72
2021-12-11 13:34:00,,0822.6,5.01,0.00,22.0,23.0,00.0,31.0,24.0,04.0,0000.0,0002.30,0000.97,0000.72
2021-12-11 13:35:00,,0822.7,4.99,0.00,22.1,23.0,00.0,31.0,24.1,04.1,0000.0,0002.41,0001.04,0000.73
2021-12-11 13:36:00,,0822.7,5.00,0.00,22.1,22.6,00.0,31.0,23.9,04.1,0000.0,0002.50,0001.07,0000.73
2021-12-11 13:37:00,,0822.7,5.01,0.00,22.1,22.2,00.0,31.0,23.7,04.1,0000.0,0002.53,0001.08,0000.73
2021-12-11 13:38:00,,0822.6,5.00,0.00,22.0,21.9,00.0,31.0,23.5,04.0,0000.0,0002.30,0001.10,0000.73
2021-12-11 13:39:00,,0822.5,4.99,0.00,21.9,21.6,00.0,31.0,23.3,04.1,0000.0,0002.11,0001.07,0000.72
2021-12-11 13:40:00,,0822.5,5.01,0.00,21.8,21.3,00.0,31.0,23.2,04.0,0000.0,0001.97,0001.06,0000.72
2021-12-11 13:41:00,,0822.6,5.00,0.00,21.8,21.1,00.0,30.9,23.2,04.1,0000.0,0001.82,0001.06,0000.72
2021-12-11 13:42:00,,0822.6,4.99,0.00,21.7,20.9,00.0,30.9,23.1,04.1,0000.0,0002.18,0001.07,0000.72
2021-12-11 13:43:00,,0822.7,5.00,0.00,21.7,21.3,00.0,30.9,23.2,04.3,0000.0,0002.63,0001.10,0000.73
2021-12-11 13:44:00,,0822.8,5.00,0.00,21.8,22.2,00.0,30.9,23.5,04.4,0000.0,0003.08,0001.16,0000.75
2021-12-11 13:45:00,,0822.8,4.99,0.00,22.0,23.0,00.0,31.0,23.9,04.2,0000.0,0003.14,0001.18,0000.77
2021-12-11 13:46:00,,0822.7,5.01,0.00,22.1,23.2,00.0,31.0,24.1,04.0,0000.0,0002.98,0001.11,0000.77
2021-12-11 13:47:00,,0822.6,5.00,0.00,22.1,22.8,00.0,31.0,24.0,03.9,0000.0,0002.87,0001.10,0000.77
2021-12-11 13:48:00,,0822.6,4.99,0.00,22.1,22.4,00.0,31.0,23.8,03.9,0000.0,0002.83,0001.08,0000.77
2021-12-11 13:49:00,,0822.7,5.01,0.00,22.0,22.0,00.0,31.0,23.6,04.0,0000.0,0002.79,0001.07,0000.77
2021-12-11 13:50:00,,0822.6,4.99,0.00,21.9,21.6,00.0,31.0,23.4,04.0,0000.0,0002.74,0001.05,0000.77
2021-12-11 13:51:00,,0822.6,5.01,0.00,21.8,21.3,00.0,31.0,23.2,04.1,0000.0,0002.73,0001.04,0000.78
2021-12-11 13:52:00,,0822.7,4.99,0.00,21.7,21.0,00.0,30.9,23.0,04.2,0000.0,0002.71,0001.04,0000.78
2021-12-11 13:53:00,,0822.6,5.01,0.00,21.6,20.8,00.0,30.9,22.9,04.2,0000.0,0002.54,0001.05,0000.77
2021-12-11 13:54:00,,0822.6,4.99,0.00,21.6,21.0,00.0,30.9,23.0,04.1,0000.0,0001.99,0001.02,0000.76
2021-12-11 13:55:00,,0822.7,5.02,0.00,21.7,21.9,00.0,30.9,23.3,04.2,0000.0,0001.51,0000.93,0000.74
2021-12-11 13:56:00,,0822.6,4.99,0.00,21.9,22.7,00.0,30.9,23.7,04.2,0000.0,0001.32,0000.89,0000.71
2021-12-11 13:57:00,,0822.7,5.01,0.00,22.0,23.1,00.0,31.0,23.9,04.2,0000.0,0001.34,0000.89,0000.70
2021-12-11 13:58:00,,0822.6,5.00,0.00,22.0,22.5,00.0,31.0,23.7,04.1,0000.0,0001.41,0000.89,0000.70
2021-12-11 13:59:00,,0822.5,4.99,0.00,21.9,22.0,00.0,31.0,23.5,04.1,0000.0,0001.40,0000.89,0000.70
